This is the latest recevied weather packets stored in our database for station/object N4TLC. If no packets are shown the sender has not sent any weather packets the latest 10 day(s).
| Time | Temp. | Humidity | Pressure | Rain* | Wind** | Luminosity | Snow |
|---|---|---|---|---|---|---|---|
| 1777647787 | 14.44° C | 51% | 1018 hPa | 0 mm | - | 335 W/m² | - |
| 1777647483 | 14.44° C | 50% | 1018.2 hPa | 0 mm | - | 260 W/m² | - |
| 1777647181 | 13.89° C | 51% | 1017.9 hPa | 0 mm | - | 298 W/m² | - |
| 1777646877 | 13.89° C | 50% | 1018.1 hPa | 0 mm | - | 342 W/m² | - |
| 1777646573 | 13.33° C | 50% | 1018.4 hPa | 0 mm | - | 309 W/m² | - |
| 1777646269 | 13.33° C | 52% | 1018 hPa | 0 mm | - | 217 W/m² | - |
| 1777645967 | 13.33° C | 51% | 1018.4 hPa | 0 mm | - | 208 W/m² | - |
| 1777645663 | 13.89° C | 51% | 1018.2 hPa | 0 mm | - | 216 W/m² | - |
| 1777645359 | 13.89° C | 50% | 1018.2 hPa | 0 mm | - | 234 W/m² | - |
| 1777645055 | 13.89° C | 52% | 1018.1 hPa | 0 mm | - | 192 W/m² | - |
| 1777644752 | 13.89° C | 50% | 1018 hPa | 0 mm | - | 174 W/m² | - |
| 1777644449 | 13.89° C | 51% | 1017.9 hPa | 0 mm | - | 223 W/m² | - |
| 1777644146 | 13.89° C | 53% | 1017.6 hPa | 0 mm | - | 128 W/m² | - |
| 1777643842 | 13.33° C | 55% | 1017.8 hPa | 0 mm | - | 127 W/m² | - |
| 1777643540 | 12.78° C | 54% | 1017.8 hPa | 0 mm | - | 114 W/m² | - |
| 1777643236 | 12.78° C | 53% | 1017.8 hPa | 0 mm | - | 136 W/m² | - |
| 1777642933 | 12.78° C | 54% | 1017.7 hPa | 0 mm | - | 189 W/m² | - |
| 1777642629 | 12.78° C | 54% | 1017.8 hPa | 0 mm | - | 219 W/m² | - |
| 1777642326 | 12.78° C | 55% | 1017.9 hPa | 0 mm | - | 214 W/m² | - |
| 1777642023 | 12.78° C | 54% | 1018.1 hPa | 0 mm | - | 181 W/m² | - |
| 1777641719 | 12.78° C | 53% | 1017.8 hPa | 0 mm | - | 243 W/m² | - |
| 1777641414 | 12.78° C | 56% | 1017.9 hPa | 0 mm | - | 189 W/m² | - |
| 1777641109 | 12.22° C | 56% | 1018 hPa | 0 mm | - | 165 W/m² | - |
| 1777640805 | 12.22° C | 55% | 1017.9 hPa | 0 mm | - | 119 W/m² | - |
| 1777640503 | 12.22° C | 58% | 1018 hPa | 0 mm | - | 170 W/m² | - |
* Rain latest hour (hover to see other rain measurements)
** Current wind speed in m/s (hover to see current wind gust speed)